Surface/Precipitation History
09/17/2014 13:43  to  9/18/2014 13:43
Change End Date:
Date/Time
(MDT)
Sf
Temp Chem Water Layer Surface Precipitation
Sf Sub Frz Factor Pct Depth IcePct Cond Salin Type Intens Accum Rate
09/18/2014 13:39 Dry 81.0F 70F - - - - - 0 mhos 0 None None - -
09/18/2014 13:31 Dry 81.3F 69F - - - - - 0 mhos 0 None None - -
09/18/2014 13:21 Dry 79.5F 67F - - - - - 0 mhos 0 None None - -
09/18/2014 13:11 Dry 67.1F 66F - - - - - 0 mhos 1 None None - -
09/18/2014 13:11 Dry 67.1F 66F - - - - - 0 mhos 1 None None - -
09/18/2014 13:01 Trace Moisture 68.2F 66F - 5 - - - 0 mhos 8 None None - -
09/18/2014 12:51 Trace Moisture 69.3F 66F - 5 - - - 0 mhos 11 None None - -
09/18/2014 12:41 Trace Moisture 69.4F 65F - 5 - - - 0 mhos 14 None None - -
09/18/2014 12:33 Trace Moisture 69.6F 64F - 5 - - - 0 mhos 14 None None - -
09/18/2014 12:31 Trace Moisture 69.6F 64F - 5 - - - 0 mhos 13 None None - -
09/18/2014 12:21 Trace Moisture 63.3F 64F - 5 - - - 0 mhos 2 None None - -
09/18/2014 12:11 Dry 64.2F 65F - - - - - 0 mhos 0 None None - -
09/18/2014 12:05 Trace Moisture 64.4F 65F - 5 - - - 0 mhos 0 None None - -
09/18/2014 12:01 Trace Moisture 65.1F 65F - 5 - - - 0 mhos 0 None None - -
09/18/2014 11:51 Trace Moisture 66.2F 65F - 5 - - - 0 mhos 1 None None - -
Date/Time
(MDT)
Sf
Temp Chem Water Layer Surface Precipitation
Sf Sub Frz Factor Pct Depth IcePct Cond Salin Type Intens Accum Rate
09/18/2014 11:41 Dry 66.9F 65F - - - - - 0 mhos 0 None None - -
09/18/2014 11:40 Dry 66.9F 65F - - - - - 0 mhos 0 None None - -
09/18/2014 11:31 Dry 67.6F 65F - - - - - 0 mhos 0 None None - -
09/18/2014 11:21 Trace Moisture 67.1F 65F - 5 - - - 0 mhos 3 None None - -
09/18/2014 11:11 Trace Moisture 67.3F 65F - 5 - - - 0 mhos 7 None None - -
09/18/2014 11:10 Trace Moisture 67.3F 65F - 5 - - - 0 mhos 7 None None - -
09/18/2014 11:01 Trace Moisture 66.7F 65F - 5 - - - 0 mhos 8 None None - -
09/18/2014 10:50 Trace Moisture 71.8F 64F - 5 - - - 0 mhos 12 None None - -
09/18/2014 10:40 Trace Moisture 69.8F 62F - 5 - - - 0 mhos 15 None None - -
09/18/2014 10:40 Trace Moisture 69.8F 62F - 5 - - - 0 mhos 14 None None - -
09/18/2014 10:30 Trace Moisture 68.4F 61F - 5 - - - 0 mhos 14 None None - -
09/18/2014 10:20 Trace Moisture 65.1F 60F - 5 - - - 0 mhos 11 None None - -
09/18/2014 10:10 Trace Moisture 59.9F 59F - 5 - - - 0 mhos 10 None None - -
09/18/2014 10:10 Trace Moisture 59.7F 59F - 5 - - - 0 mhos 8 None None - -
09/18/2014 10:00 Trace Moisture 59.2F 59F - 5 - - - 0 mhos 10 None None - -
Date/Time
(MDT)
Sf
Temp Chem Water Layer Surface Precipitation
Sf Sub Frz Factor Pct Depth IcePct Cond Salin Type Intens Accum Rate
09/18/2014 09:50 Trace Moisture 59.0F 58F - 5 - - - 0 mhos 11 None None - -
09/18/2014 09:40 Trace Moisture 58.6F 58F - 5 - - - 0 mhos 10 None None - -
09/18/2014 09:39 Trace Moisture 58.6F 58F - 5 - - - 0 mhos 9 None None - -
09/18/2014 09:30 Trace Moisture 58.3F 58F - 5 - - - 0 mhos 9 None None - -
09/18/2014 09:20 Trace Moisture 57.0F 58F - 5 - - - 0 mhos 9 None None - -
09/18/2014 09:10 Other - 58F - - - - - - - None None - -
09/18/2014 09:10 Other - 58F - - - - - - - None None - -
09/18/2014 08:40 Trace Moisture 56.8F 58F - 5 - - - 0 mhos 10 None None - -
09/18/2014 08:33 Trace Moisture 56.8F 58F - 5 - - - 0 mhos 7 None None - -
09/18/2014 08:23 Trace Moisture 57.0F 58F - 5 - - - 0 mhos 12 None None - -
09/18/2014 08:13 Trace Moisture 57.0F 58F - 5 - - - 0 mhos 7 None None - -
09/18/2014 08:10 Trace Moisture 57.2F 59F - 5 - - - 0 mhos 13 None None - -
09/18/2014 08:03 Trace Moisture 57.6F 59F - 5 - - - 0 mhos 12 None None - -
09/18/2014 07:53 Trace Moisture 57.6F 59F - 5 - - - 0 mhos 9 None None - -
09/18/2014 07:43 Trace Moisture 57.6F 59F - 5 - - - 0 mhos 10 None None - -
Date/Time
(MDT)
Sf
Temp Chem Water Layer Surface Precipitation
Sf Sub Frz Factor Pct Depth IcePct Cond Salin Type Intens Accum Rate
09/18/2014 07:39 Trace Moisture 57.6F 59F - 5 - - - 0 mhos 9 None None - -
09/18/2014 07:33 Trace Moisture 57.6F 59F - 5 - - - 0 mhos 8 None None - -
09/18/2014 07:23 Trace Moisture 57.6F 58F - 5 - - - 0 mhos 6 None None - -
09/18/2014 07:13 Trace Moisture 57.2F 58F - 10 - - - 0 mhos 5 None None - -
09/18/2014 07:09 Trace Moisture 57.2F 59F - 5 - - - 0 mhos 4 None None - -
09/18/2014 07:03 Trace Moisture 57.0F 59F - 10 - - - 0 mhos 5 None None - -
09/18/2014 06:53 Trace Moisture 57.2F 59F - 40 - - - 0 mhos 18 None None - -
09/18/2014 06:42 Trace Moisture 57.0F 59F - 10 - - - 0 mhos 20 None None - -
09/18/2014 06:41 Trace Moisture 57.0F 59F - 40 - - - 1 mhos 38 None None - -
09/18/2014 06:32 Trace Moisture 56.8F 59F - 10 - - - 1 mhos 58 None None - -
09/18/2014 06:22 Trace Moisture 56.8F 59F - 10 - - - 1 mhos 58 None None - -
09/18/2014 06:12 Trace Moisture 56.7F 59F - 10 - - - 1 mhos 75 None None - -
09/18/2014 06:11 Trace Moisture 56.7F 59F - 10 - - - 1 mhos 74 None None - -
09/18/2014 06:02 Trace Moisture 56.5F 59F - 15 - - - 1 mhos 70 None None - -
09/18/2014 05:52 Trace Moisture 56.1F 59F - 15 - - - 1 mhos 72 None None - -
Date/Time
(MDT)
Sf
Temp Chem Water Layer Surface Precipitation
Sf Sub Frz Factor Pct Depth IcePct Cond Salin Type Intens Accum Rate
09/18/2014 05:42 Trace Moisture 56.1F 59F - 10 - - - 1 mhos 63 None None - -
09/18/2014 05:41 Trace Moisture 56.1F 59F - 10 - - - 1 mhos 62 None None - -
09/18/2014 05:32 Trace Moisture 56.3F 60F - 10 - - - 1 mhos 53 None None - -
09/18/2014 05:22 Trace Moisture 57.2F 60F - 10 - - - 1 mhos 61 None None - -
09/18/2014 05:12 Trace Moisture 58.1F 60F - 10 - - - 1 mhos 57 None None - -
09/18/2014 05:11 Trace Moisture 58.1F 60F - 15 - - - 1 mhos 54 None None - -
09/18/2014 05:02 Trace Moisture 58.5F 61F - 25 - - - 1 mhos 56 None None - -
09/18/2014 04:52 Trace Moisture 58.3F 61F - 25 - - - 1 mhos 54 None None - -
09/18/2014 04:42 Trace Moisture 58.6F 61F - 65 - - - 1 mhos 54 None None - -
09/18/2014 04:41 Trace Moisture 58.6F 61F - 75 - - - 1 mhos 53 None None - -
09/18/2014 04:32 Trace Moisture 58.3F 62F - 80 - - - 0 mhos 32 None None - -
09/18/2014 04:22 Dry 60.1F 62F - - - - - 0 mhos 0 None None - -
09/18/2014 04:12 Dry 60.4F 62F - - - - - 0 mhos 0 None None - -
09/18/2014 04:11 Dry 60.6F 62F - - - - - 0 mhos 0 None None - -
09/18/2014 04:02 Dry 61.0F 62F - - - - - 0 mhos 0 None None - -
Date/Time
(MDT)
Sf
Temp Chem Water Layer Surface Precipitation
Sf Sub Frz Factor Pct Depth IcePct Cond Salin Type Intens Accum Rate
09/18/2014 03:52 Dry 61.0F 62F - - - - - 0 mhos 0 None None - -
09/18/2014 03:42 Dry 61.0F 62F - - - - - 0 mhos 0 None None - -
09/18/2014 03:41 Dry 61.0F 62F - - - - - 0 mhos 0 None None - -
09/18/2014 03:31 Dry 61.0F 62F - - - - - 0 mhos 0 None None - -
09/18/2014 03:21 Dry 61.2F 62F - - - - - 0 mhos 0 None None - -
09/18/2014 03:11 Dry 61.2F 62F - - - - - 0 mhos 0 None None - -
09/18/2014 03:11 Dry 61.2F 62F - - - - - 0 mhos 0 None None - -
09/18/2014 03:01 Dry 61.0F 62F - - - - - 0 mhos 0 None None - -
09/18/2014 02:51 Dry 60.6F 62F - - - - - 0 mhos 0 None None - -
09/18/2014 02:41 Dry 60.6F 62F - - - - - 0 mhos 0 None None - -
09/18/2014 02:41 Dry 60.6F 62F - - - - - 0 mhos 0 None None - -
09/18/2014 02:31 Dry 60.4F 62F - - - - - 0 mhos 0 None None - -
09/18/2014 02:21 Dry 60.3F 62F - - - - - 0 mhos 0 None None - -
09/18/2014 02:11 Dry 60.3F 63F - - - - - 0 mhos 0 None None - -
09/18/2014 02:01 Dry 60.4F 63F - - - - - 0 mhos 0 None None - -
Date/Time
(MDT)
Sf
Temp Chem Water Layer Surface Precipitation
Sf Sub Frz Factor Pct Depth IcePct Cond Salin Type Intens Accum Rate
09/18/2014 01:51 Dry 60.4F 63F - - - - - 0 mhos 0 None None - -
09/18/2014 01:41 Dry 60.8F 63F - - - - - 0 mhos 0 None None - -
09/18/2014 01:41 Dry 60.8F 63F - - - - - 0 mhos 0 None None - -
09/18/2014 01:31 Dry 60.8F 63F - - - - - 0 mhos 0 None None - -
09/18/2014 01:21 Dry 61.0F 63F - - - - - 0 mhos 0 None None - -
09/18/2014 01:11 Dry 61.0F 64F - - - - - 0 mhos 0 None None - -
09/18/2014 01:11 Dry 61.0F 64F - - - - - 0 mhos 0 None None - -
09/18/2014 01:01 Dry 61.0F 64F - - - - - 0 mhos 0 None None - -
09/18/2014 00:51 Dry 60.6F 64F - - - - - 0 mhos 0 None None - -
09/18/2014 00:41 Dry 60.8F 64F - - - - - 0 mhos 0 None None - -
09/18/2014 00:39 Dry 61.0F 64F - - - - - 0 mhos 0 None None - -
09/18/2014 00:31 Dry 61.3F 64F - - - - - 0 mhos 0 None None - -
09/18/2014 00:20 Dry 61.7F 65F - - - - - 0 mhos 0 None None - -
09/18/2014 00:11 Dry 61.7F 65F - - - - - 0 mhos 0 None None - -
09/18/2014 00:10 Dry 61.7F 65F - - - - - 0 mhos 0 None None - -
Date/Time
(MDT)
Sf
Temp Chem Water Layer Surface Precipitation
Sf Sub Frz Factor Pct Depth IcePct Cond Salin Type Intens Accum Rate
09/18/2014 00:00 Dry 61.7F 65F - - - - - 0 mhos 0 None None - -
09/17/2014 23:50 Dry 61.9F 65F - - - - - 0 mhos 0 None None - -
09/17/2014 23:40 Dry 62.2F 66F - - - - - 0 mhos 0 None None - -
09/17/2014 23:30 Dry 62.4F 66F - - - - - 0 mhos 0 None None - -
09/17/2014 23:20 Dry 62.8F 66F - - - - - 0 mhos 0 None None - -
09/17/2014 23:10 Dry 63.0F 67F - - - - - 0 mhos 0 None None - -
09/17/2014 23:04 Dry 63.1F 67F - - - - - 0 mhos 0 None None - -
09/17/2014 23:00 Dry 63.5F 67F - - - - - 0 mhos 0 None None - -
09/17/2014 22:50 Dry 64.0F 67F - - - - - 0 mhos 0 None None - -
09/17/2014 22:48 Dry 64.0F 67F - - - - - 0 mhos 0 None None - -
09/17/2014 22:40 Dry 64.4F 68F - - - - - 0 mhos 0 None None - -
09/17/2014 22:30 Dry 64.8F 68F - - - - - 0 mhos 0 None None - -
09/17/2014 22:20 Dry 65.1F 68F - - - - - 0 mhos 0 None None - -
09/17/2014 22:11 Dry 65.1F 69F - - - - - 0 mhos 0 None None - -
09/17/2014 22:10 Dry 65.3F 69F - - - - - 0 mhos 0 None None - -
Date/Time
(MDT)
Sf
Temp Chem Water Layer Surface Precipitation
Sf Sub Frz Factor Pct Depth IcePct Cond Salin Type Intens Accum Rate
09/17/2014 22:00 Dry 65.8F 69F - - - - - 0 mhos 0 None None - -
09/17/2014 21:50 Dry 66.2F 70F - - - - - 0 mhos 0 None None - -
09/17/2014 21:41 Dry 66.6F 70F - - - - - 0 mhos 0 None None - -
09/17/2014 21:40 Dry 66.7F 70F - - - - - 0 mhos 0 None None - -
09/17/2014 21:30 Dry 67.1F 70F - - - - - 0 mhos 0 None None - -
09/17/2014 21:20 Dry 67.5F 71F - - - - - 0 mhos 0 None None - -
09/17/2014 21:11 Dry 67.8F 71F - - - - - 0 mhos 0 None None - -
09/17/2014 21:09 Dry 68.0F 71F - - - - - 0 mhos 0 None None - -
09/17/2014 20:59 Dry 68.4F 72F - - - - - 0 mhos 0 None None - -
09/17/2014 20:49 Dry 68.7F 72F - - - - - 0 mhos 0 None None - -
09/17/2014 20:41 Dry 69.4F 73F - - - - - 0 mhos 0 None None - -
09/17/2014 20:39 Dry 69.4F 73F - - - - - 0 mhos 0 None None - -
09/17/2014 20:29 Dry 70.0F 73F - - - - - 0 mhos 0 None None - -
09/17/2014 20:19 Dry 70.5F 74F - - - - - 0 mhos 0 None None - -
09/17/2014 20:11 Dry 71.1F 74F - - - - - 0 mhos 0 None None - -
Date/Time
(MDT)
Sf
Temp Chem Water Layer Surface Precipitation
Sf Sub Frz Factor Pct Depth IcePct Cond Salin Type Intens Accum Rate
09/17/2014 20:09 Dry 71.1F 74F - - - - - 0 mhos 0 None None - -
09/17/2014 19:59 Dry 71.8F 75F - - - - - 0 mhos 0 None None - -
09/17/2014 19:49 Dry 72.9F 76F - - - - - 0 mhos 0 None None - -
09/17/2014 19:39 Dry 73.9F 76F - - - - - 0 mhos 0 None None - -
09/17/2014 19:38 Dry 73.9F 76F - - - - - 0 mhos 0 None None - -
09/17/2014 19:29 Dry 75.0F 77F - - - - - 0 mhos 0 None None - -
09/17/2014 19:19 Dry 76.3F 78F - - - - - 0 mhos 0 None None - -
09/17/2014 19:09 Dry 77.4F 78F - - - - - 0 mhos 0 None None - -
09/17/2014 19:09 Dry 77.4F 78F - - - - - 0 mhos 0 None None - -
09/17/2014 18:59 Dry 78.3F 79F - - - - - 0 mhos 0 None None - -
09/17/2014 18:49 Dry 79.5F 80F - - - - - 0 mhos 0 None None - -
09/17/2014 18:39 Dry 81.1F 80F - - - - - 0 mhos 0 None None - -
09/17/2014 18:32 Dry 82.2F 80F - - - - - 0 mhos 0 None None - -
09/17/2014 18:29 Dry 82.4F 80F - - - - - 0 mhos 0 None None - -
09/17/2014 18:19 Dry 82.4F 81F - - - - - 0 mhos 0 None None - -
Date/Time
(MDT)
Sf
Temp Chem Water Layer Surface Precipitation
Sf Sub Frz Factor Pct Depth IcePct Cond Salin Type Intens Accum Rate
09/17/2014 18:10 Dry 82.2F 81F - - - - - 0 mhos 0 None None - -
09/17/2014 18:09 Dry 82.2F 81F - - - - - 0 mhos 0 None None - -
09/17/2014 17:59 Dry 83.1F 82F - - - - - 0 mhos 0 None None - -
09/17/2014 17:49 Dry 84.2F 82F - - - - - 0 mhos 0 None None - -
09/17/2014 17:40 Dry 84.9F 83F - - - - - 0 mhos 0 None None - -
09/17/2014 17:38 Dry 84.9F 83F - - - - - 0 mhos 0 None None - -
09/17/2014 17:28 Dry 86.0F 83F - - - - - 0 mhos 0 None None - -
09/17/2014 17:18 Dry 87.4F 84F - - - - - 0 mhos 0 None None - -
09/17/2014 17:08 Dry 88.5F 84F - - - - - 0 mhos 0 None None - -
09/17/2014 17:04 Dry 89.1F 84F - - - - - 0 mhos 0 None None - -
09/17/2014 16:58 Dry 90.3F 84F - - - - - 0 mhos 0 None None - -
09/17/2014 16:48 Dry 90.7F 84F - - - - - 0 mhos 0 None None - -
09/17/2014 16:38 Dry 86.9F 84F - - - - - 0 mhos 0 None None - -
09/17/2014 16:38 Dry 87.1F 84F - - - - - 0 mhos 0 None None - -
09/17/2014 16:28 Dry 87.8F 85F - - - - - 0 mhos 0 None None - -
Date/Time
(MDT)
Sf
Temp Chem Water Layer Surface Precipitation
Sf Sub Frz Factor Pct Depth IcePct Cond Salin Type Intens Accum Rate
09/17/2014 16:18 Dry 89.8F 85F - - - - - 0 mhos 0 None None - -
09/17/2014 16:08 Dry 90.5F 86F - - - - - 0 mhos 0 None None - -
09/17/2014 16:06 Dry 90.9F 86F - - - - - 0 mhos 0 None None - -
09/17/2014 15:58 Dry 92.8F 86F - - - - - 0 mhos 0 None None - -
09/17/2014 15:48 Dry 94.1F 86F - - - - - 0 mhos 0 None None - -
09/17/2014 15:38 Dry 96.6F 86F - - - - - 0 mhos 0 None None - -
09/17/2014 15:34 Dry 95.4F 86F - - - - - 0 mhos 0 None None - -
09/17/2014 15:28 Dry 95.9F 85F - - - - - 0 mhos 0 None None - -
09/17/2014 15:18 Dry 95.9F 85F - - - - - 0 mhos 0 None None - -
09/17/2014 15:10 Dry 92.8F 84F - - - - - 0 mhos 0 None None - -
09/17/2014 15:08 Dry 91.0F 84F - - - - - 0 mhos 0 None None - -
09/17/2014 14:58 Dry 90.1F 85F - - - - - 0 mhos 0 None None - -
09/17/2014 14:48 Dry 91.6F 85F - - - - - 0 mhos 0 None None - -
09/17/2014 14:38 Dry 91.9F 85F - - - - - 0 mhos 0 None None - -
09/17/2014 14:34 Dry 90.9F 85F - - - - - 0 mhos 0 None None - -
Date/Time
(MDT)
Sf
Temp Chem Water Layer Surface Precipitation
Sf Sub Frz Factor Pct Depth IcePct Cond Salin Type Intens Accum Rate
09/17/2014 14:28 Dry 91.9F 85F - - - - - 0 mhos 0 None None - -
09/17/2014 14:17 Dry 92.8F 86F - - - - - 0 mhos 0 None None - -
09/17/2014 14:07 Dry 97.0F 86F - - - - - 0 mhos 0 None None - -
09/17/2014 14:07 Dry 97.0F 86F - - - - - 0 mhos 0 None None - -
09/17/2014 13:57 Dry 101.7F 85F - - - - - 0 mhos 0 None None - -
09/17/2014 13:47 Dry 97.5F 84F - - - - - 0 mhos 0 None None - -
Change End Date:
Copyright © 1998-2005 Surface Systems, Inc.
All Rights Reserved
Send comments about the data to:
SCAN Web ® is a registered trademark of Surface Systems, Inc.
SCAN Web Version 5.6